Terminal Aerodrome Forecast
Issued by NWS

Home | Current Version | Previous Version | Text Only | Print | Product List | Glossary On
Versions: 1 2 3 4 5 6 7 8 9 10 11 12 13 14 15 16 17 18 19 20 21
000
FTUS46 KSEW 222300
TAFOLM
TAF
KOLM 222323Z 2300/2324 19005KT P6SM SCT035 BKN120
     FM230700 20006KT 3SM BR BKN012 BKN020
     FM231200 22007KT 5SM -RA BR SCT006 OVC015
     FM231800 16010KT P6SM -RA OVC025
     FM232100 18010KT 3SM RA BR OVC011=

USA.gov is the U.S. government's official web portal to all federal, state and local government web resources and services.